{"data":{"norad_id":67569,"intl_designator":"2026-016J","name":"STARLINK-36575","alt_names":[],"object_type":"PAYLOAD","status":"ACTIVE","operator":null,"country":"US","launch_date":"2026-01-25","launch_site_code":"AFWTR","launch_vehicle":null,"mission":null,"orbit_class":"UNKNOWN","rcs_meters":null,"size_class":null,"mass_kg":null,"dimensions":null,"purposes":["comms"],"wikipedia_slug":null,"has_3d_model":false,"image_url":null,"decayed_at":null,"tle_current":{"epoch":"2026-05-25T02:49:44.265216Z","epoch_age_seconds":75419,"freshness":"FRESH","line1":"1 67569U 26016J   26145.11787344  .00027047  00000+0  83673-3 0  9990","line2":"2 67569  97.2838 206.4628 0000863  91.9241 268.2101 15.33460403 18641","mean_motion":15.33460403,"eccentricity":8.63e-5,"inclination_deg":97.2838,"raan_deg":206.4628,"arg_perigee_deg":91.9241,"mean_anomaly_deg":268.2101,"bstar":0.00083673,"rev_number":1864,"period_min":93.905261406349,"perigee_km":464.90674072658,"apogee_km":466.08795201476,"semimajor_km":6843.6343463707,"source":"CELESTRAK","updated_at":"2026-05-25T13:38:21.614430Z"}}}